Weather History for Cambridge, MD

Change the Weather History Date:

Thursday, February 21, 2013

  Actual Average (KESN) Record (KESN)
Temperature  
Mean Temperature 32 °F -  
Max Temperature 35 °F 46 °F 66 °F (2014)
Min Temperature 28 °F 25 °F 9 °F (1950)
Degree Days  
Heating Degree Days 34    
Moisture  
Dew Point 16 °F    
Average Humidity 53    
Maximum Humidity 60    
Minimum Humidity 44    
Precipitation  
Precipitation 0.00 in - - ()
Sea Level Pressure  
Sea Level Pressure 30.18 in    
Wind  
Wind Speed 14 mph (NW)    
Max Wind Speed 21 mph    
Max Gust Speed 31 mph    
Visibility 10 miles    
Events      
Averages and records for this station are not official NWS values.
T = Trace of Precipitation, MM = Missing Value Source: NWS Daily Summary

Daily Weather History Graph

Daily Weather History Graph

Search for Another Location

Airport:

Trip Planner

Search our weather history database for the weather conditions in past years. The results will help you decide how hot, cold, wet, or windy it might be!

Date:

Astronomy

Feb. 21, 2013 Rise Set
Actual Time 6:46 AM EST 5:48 PM EST
Civil Twilight 6:20 AM EST 6:15 PM EST
Nautical Twilight 5:49 AM EST 6:46 PM EST
Astronomical Twilight 5:18 AM EST 7:17 PM EST
Moon 2:03 PM EST (2/21) 3:48 AM EST (2/21)
Length of Visible Light 11h 55m
Length of Day
11h 02m
Waxing Gibbous, 83% of the Moon is Illuminated
Feb 21
Waxing Gibbous
Feb 25
Full
Mar 4
Last Quarter
Mar 11
New
Mar 19
First Quarter

Hourly Weather History & Observations

Time (EST) Temp. Windchill Dew Point Humidity Pressure Visibility Wind Dir Wind Speed Gust Speed Precip Events Conditions
12:08 AM 30.2 °F 17.4 °F 14.0 °F 51% 30.12 in 10.0 mi NW 20.7 mph 31.1 mph N/A   Clear
12:28 AM 28.4 °F 15.8 °F 12.2 °F 51% 30.12 in 10.0 mi NW 18.4 mph 26.5 mph N/A   Clear
12:48 AM 28.4 °F 16.2 °F 12.2 °F 51% 30.13 in 10.0 mi NW 17.3 mph 24.2 mph N/A   Clear
1:08 AM 28.4 °F 17.0 °F 12.2 °F 51% 30.12 in 10.0 mi NW 15.0 mph 24.2 mph N/A   Clear
1:28 AM 28.4 °F 16.6 °F 12.2 °F 51% 30.13 in 10.0 mi NW 16.1 mph 21.9 mph N/A   Clear
1:48 AM 28.4 °F 18.5 °F 12.2 °F 51% 30.13 in 10.0 mi NW 11.5 mph 20.7 mph N/A   Clear
2:08 AM 28.4 °F 17.5 °F 12.2 °F 51% 30.12 in 10.0 mi NW 13.8 mph 18.4 mph N/A   Clear
2:28 AM 28.4 °F 19.1 °F 12.2 °F 51% 30.12 in 10.0 mi NW 10.4 mph 17.3 mph N/A   Clear
2:48 AM 28.4 °F 19.1 °F 14.0 °F 55% 30.12 in 10.0 mi NW 10.4 mph 23.0 mph N/A   Clear
3:08 AM 28.4 °F 19.1 °F 14.0 °F 55% 30.12 in 10.0 mi WNW 10.4 mph 24.2 mph N/A   Clear
3:28 AM 28.4 °F 19.1 °F 14.0 °F 55% 30.12 in 10.0 mi WNW 10.4 mph 19.6 mph N/A   Clear
4:09 AM 28.4 °F 17.5 °F 14.0 °F 55% 30.12 in 10.0 mi WNW 13.8 mph 20.7 mph N/A   Clear
4:29 AM 28.4 °F 17.0 °F 14.0 °F 55% 30.12 in 10.0 mi NW 15.0 mph - N/A   Clear
4:49 AM 28.4 °F 16.2 °F 14.0 °F 55% 30.13 in 10.0 mi NW 17.3 mph 21.9 mph N/A   Clear
5:09 AM 28.4 °F 18.0 °F 14.0 °F 55% 30.14 in 10.0 mi NW 12.7 mph 21.9 mph N/A   Clear
5:29 AM 28.4 °F 16.6 °F 14.0 °F 55% 30.14 in 10.0 mi NW 16.1 mph 24.2 mph N/A   Clear
5:49 AM 28.4 °F 18.0 °F 14.0 °F 55% 30.14 in 10.0 mi NW 12.7 mph - N/A   Clear
6:09 AM 28.4 °F 18.5 °F 14.0 °F 55% 30.14 in 10.0 mi WNW 11.5 mph 20.7 mph N/A   Clear
6:29 AM 28.4 °F 19.1 °F 14.0 °F 55% 30.15 in 10.0 mi WNW 10.4 mph - N/A   Clear
7:09 AM 28.4 °F 17.5 °F 14.0 °F 55% 30.16 in 10.0 mi NW 13.8 mph 19.6 mph N/A   Scattered Clouds
7:29 AM 28.4 °F 20.4 °F 14.0 °F 55% 30.17 in 10.0 mi NW 8.1 mph 17.3 mph N/A   Scattered Clouds
7:49 AM 28.4 °F 17.5 °F 14.0 °F 55% 30.17 in 10.0 mi WNW 13.8 mph 19.6 mph N/A   Scattered Clouds
8:09 AM 28.4 °F 18.5 °F 14.0 °F 55% 30.17 in 10.0 mi NW 11.5 mph 23.0 mph N/A   Scattered Clouds
8:29 AM 30.2 °F 19.8 °F 15.8 °F 55% 30.18 in 10.0 mi NW 13.8 mph 20.7 mph N/A   Mostly Cloudy
8:49 AM 30.2 °F 20.2 °F 15.8 °F 55% 30.18 in 10.0 mi WNW 12.7 mph 23.0 mph N/A   Mostly Cloudy
9:09 AM 30.2 °F 20.2 °F 14.0 °F 51% 30.19 in 10.0 mi NW 12.7 mph 19.6 mph N/A   Scattered Clouds
9:29 AM 30.2 °F 19.8 °F 14.0 °F 51% 30.18 in 10.0 mi NW 13.8 mph 25.3 mph N/A   Scattered Clouds
9:49 AM 30.2 °F 19.3 °F 14.0 °F 51% 30.19 in 10.0 mi NNW 15.0 mph - N/A   Mostly Cloudy
10:09 AM 30.2 °F 19.3 °F 14.0 °F 51% 30.18 in 10.0 mi WNW 15.0 mph 21.9 mph N/A   Mostly Cloudy
10:29 AM 32.0 °F 22.5 °F 15.8 °F 51% 30.18 in 10.0 mi NW 12.7 mph 24.2 mph N/A   Scattered Clouds
10:49 AM 32.0 °F 21.6 °F 15.8 °F 51% 30.19 in 10.0 mi WNW 15.0 mph 26.5 mph N/A   Clear
11:09 AM 32.0 °F 21.6 °F 14.0 °F 48% 30.19 in 10.0 mi WNW 15.0 mph 26.5 mph N/A   Clear
11:29 AM 32.0 °F 21.2 °F 14.0 °F 48% 30.18 in 10.0 mi NW 16.1 mph 26.5 mph N/A   Clear
11:49 AM 33.8 °F 25.3 °F 17.6 °F 52% 30.18 in 10.0 mi NW 11.5 mph 23.0 mph N/A   Clear
12:09 PM 33.8 °F 25.3 °F 17.6 °F 52% 30.17 in 10.0 mi WNW 11.5 mph 21.9 mph N/A   Clear
12:30 PM 33.8 °F 23.5 °F 17.6 °F 52% 30.17 in 10.0 mi WNW 16.1 mph 24.2 mph N/A   Clear
12:50 PM 33.8 °F 24.3 °F 15.8 °F 48% 30.16 in 10.0 mi NNW 13.8 mph 25.3 mph N/A   Clear
1:10 PM 33.8 °F 22.8 °F 17.6 °F 52% 30.15 in 10.0 mi WNW 18.4 mph 25.3 mph N/A   Clear
1:30 PM 33.8 °F 23.2 °F 17.6 °F 52% 30.16 in 10.0 mi NNW 17.3 mph 21.9 mph N/A   Clear
2:10 PM 35.6 °F 26.2 °F 17.6 °F 48% 30.14 in 10.0 mi NW 15.0 mph 26.5 mph N/A   Clear
2:30 PM 35.6 °F 25.9 °F 17.6 °F 48% 30.14 in 10.0 mi NW 16.1 mph 24.2 mph N/A   Clear
2:50 PM 35.6 °F 26.2 °F 17.6 °F 48% 30.15 in 10.0 mi WNW 15.0 mph 23.0 mph N/A   Clear
3:10 PM 35.6 °F 25.9 °F 17.6 °F 48% 30.14 in 10.0 mi NW 16.1 mph 23.0 mph N/A   Clear
3:30 PM 35.6 °F 25.9 °F 15.8 °F 44% 30.15 in 10.0 mi NNW 16.1 mph 23.0 mph N/A   Clear
3:50 PM 35.6 °F 25.5 °F 17.6 °F 48% 30.15 in 10.0 mi NW 17.3 mph 21.9 mph N/A   Clear
4:10 PM 35.6 °F 28.0 °F 17.6 °F 48% 30.15 in 10.0 mi NW 10.4 mph 18.4 mph N/A   Clear
4:30 PM 35.6 °F 26.6 °F 15.8 °F 44% 30.15 in 10.0 mi NW 13.8 mph 21.9 mph N/A   Clear
4:50 PM 35.6 °F 27.1 °F 17.6 °F 48% 30.15 in 10.0 mi NW 12.7 mph 20.7 mph N/A   Clear
5:10 PM 35.6 °F 27.1 °F 17.6 °F 48% 30.17 in 10.0 mi NW 12.7 mph 16.1 mph N/A   Clear
5:30 PM 35.6 °F 27.5 °F 19.4 °F 52% 30.18 in 10.0 mi NNW 11.5 mph - N/A   Clear
5:50 PM 35.6 °F 27.5 °F 19.4 °F 52% 30.21 in 10.0 mi NNW 11.5 mph - N/A   Clear
6:10 PM 35.6 °F 29.2 °F 19.4 °F 52% 30.22 in 10.0 mi NNW 8.1 mph - N/A   Clear
6:30 PM 33.8 °F 26.4 °F 19.4 °F 56% 30.22 in 10.0 mi NNW 9.2 mph 16.1 mph N/A   Clear
6:50 PM 33.8 °F 27.0 °F 19.4 °F 56% 30.23 in 10.0 mi NW 8.1 mph - N/A   Clear
7:10 PM 33.8 °F 25.8 °F 19.4 °F 56% 30.24 in 10.0 mi NW 10.4 mph 18.4 mph N/A   Clear
7:30 PM 33.8 °F 26.4 °F 19.4 °F 56% 30.26 in 10.0 mi NW 9.2 mph - N/A   Clear
7:50 PM 33.8 °F 26.4 °F 19.4 °F 56% 30.27 in 10.0 mi NW 9.2 mph - N/A   Clear
8:10 PM 33.8 °F 25.8 °F 19.4 °F 56% 30.26 in 10.0 mi NW 10.4 mph - N/A   Clear
8:30 PM 33.8 °F 27.0 °F 19.4 °F 56% 30.27 in 10.0 mi NW 8.1 mph - N/A   Clear
8:50 PM 33.8 °F 27.0 °F 19.4 °F 56% 30.28 in 10.0 mi NW 8.1 mph 16.1 mph N/A   Clear
9:31 PM 33.8 °F 27.7 °F 21.2 °F 60% 30.29 in 10.0 mi NNW 6.9 mph - N/A   Clear
9:51 PM 33.8 °F 28.6 °F 21.2 °F 60% 30.29 in 10.0 mi NW 5.8 mph - N/A   Clear
10:11 PM 33.8 °F 27.7 °F 19.4 °F 56% 30.30 in 10.0 mi NNW 6.9 mph - N/A   Clear
10:31 PM 32.0 °F 27.5 °F 19.4 °F 60% 30.31 in 10.0 mi NW 4.6 mph - N/A   Clear
10:51 PM 32.0 °F 24.8 °F 19.4 °F 60% 30.30 in 10.0 mi NW 8.1 mph - N/A   Clear
11:11 PM 32.0 °F 24.8 °F 19.4 °F 60% 30.30 in 10.0 mi NW 8.1 mph - N/A   Clear
11:31 PM 32.0 °F 24.8 °F 19.4 °F 60% 30.31 in 10.0 mi NW 8.1 mph - N/A   Clear
11:51 PM 32.0 °F 24.2 °F 19.4 °F 60% 30.30 in 10.0 mi NNW 9.2 mph - N/A   Clear